Shenandoah, IA

11:45 AM CST on February 08, 2016 (GMT -0600)
Shenandoah Municipal

Weather History for KSDA - June, 2011

Change the Weather History Date:

Saturday, June 4, 2011

  Actual Average Record
Temperature  
Mean Temperature 78 °F -  
Max Temperature 87 °F 80 °F 96 °F (1958)
Min Temperature 68 °F 58 °F 41 °F (1951)
Cooling Degree Days 12    
Growing Degree Days 28 (Base 50)    
Moisture  
Dew Point 66 °F    
Average Humidity 67    
Maximum Humidity 83    
Minimum Humidity 49    
Precipitation  
Precipitation 0.00 in - - ()
Sea Level Pressure  
Sea Level Pressure 30.06 in    
Wind  
Wind Speed 5 mph (ENE)    
Max Wind Speed 9 mph    
Max Gust Speed 18 mph    
Visibility 10 miles    
Events Rain    
Averages and records for this station are not official NWS values.
T = Trace of Precipitation, MM = Missing Value Source: NWS Daily Summary

Daily Weather History Graph

Daily Weather History Graph

Search for Another Location

Airport or City:

Trip Planner

Search our weather history database for the weather conditions in past years. The results will help you decide how hot, cold, wet, or windy it might be!

Date:

Astronomy

Jun. 04, 2011 Rise Set
Actual Time 5:51 AM CDT 8:48 PM CDT
Civil Twilight 5:18 AM CDT 9:21 PM CDT
Nautical Twilight 4:37 AM CDT 10:03 PM CDT
Astronomical Twilight 3:48 AM CDT 10:51 PM CDT
Moon 8:23 AM CDT (6/4) 11:17 PM CDT (6/4)
Length of Visible Light 16h 02m
Length of Day
14h 57m
Waxing Crescent, 9% of the Moon is Illuminated
Jun 4
Waxing Crescent
Jun 8
First Quarter
Jun 15
Full
Jun 23
Last Quarter
Jul 1
New

Hourly Weather History & Observations

Time (CDT) Temp. Heat Index Dew Point Humidity Pressure Visibility Wind Dir Wind Speed Gust Speed Precip Events Conditions
12:16 AM 78.8 °F - 64.4 °F 61% 29.97 in 10.0 mi South 9.2 mph - N/A   Clear
12:37 AM 78.8 °F - 64.4 °F 61% 29.97 in 10.0 mi SW 4.6 mph - N/A   Clear
1:00 AM 75.2 °F - 64.4 °F 69% 29.98 in 10.0 mi West 4.6 mph - N/A   Clear
1:16 AM 77.0 °F - 64.4 °F 65% 29.99 in 10.0 mi West 6.9 mph - N/A   Clear
1:36 AM 75.2 °F - 64.4 °F 69% 29.99 in 10.0 mi SW 5.8 mph - N/A   Clear
1:56 AM 75.2 °F - 64.4 °F 69% 29.99 in 10.0 mi SSW 5.8 mph - N/A   Clear
2:17 AM 73.4 °F - 64.4 °F 73% 30.00 in 10.0 mi Calm Calm - N/A   Clear
2:41 AM 73.4 °F - 64.4 °F 73% 30.00 in 10.0 mi SSW 5.8 mph - N/A   Clear
2:56 AM 73.4 °F - 64.4 °F 73% 30.00 in 10.0 mi SSW 4.6 mph - N/A   Clear
3:36 AM 71.6 °F - 64.4 °F 78% 30.02 in 10.0 mi WSW 4.6 mph - N/A   Clear
3:56 AM 73.4 °F - 64.4 °F 73% 30.01 in 10.0 mi SSW 4.6 mph - N/A   Clear
4:19 AM 71.6 °F - 64.4 °F 78% 30.02 in 10.0 mi WSW 3.5 mph - N/A   Clear
4:36 AM 71.6 °F - 64.4 °F 78% 30.03 in 10.0 mi Calm Calm - N/A   Clear
4:57 AM 69.8 °F - 64.4 °F 83% 30.02 in 10.0 mi Calm Calm - N/A   Clear
5:56 AM 69.8 °F - 62.6 °F 78% 30.04 in 10.0 mi NNE 3.5 mph - N/A   Scattered Clouds
6:16 AM 68.0 °F - 62.6 °F 83% 30.04 in 7.0 mi Calm Calm - N/A   Clear
6:36 AM 69.8 °F - 64.4 °F 83% 30.06 in 7.0 mi Calm Calm - N/A   Clear
6:56 AM 69.8 °F - 64.4 °F 83% 30.07 in 10.0 mi Calm Calm - N/A   Clear
7:19 AM 71.6 °F - 64.4 °F 78% 30.08 in 10.0 mi North 6.9 mph - N/A   Clear
7:36 AM 71.6 °F - 64.4 °F 78% 30.08 in 10.0 mi NE 5.8 mph - N/A   Clear
8:00 AM 71.6 °F - 64.4 °F 78% 30.07 in 10.0 mi NE 3.5 mph - N/A   Clear
8:16 AM 73.4 °F - 64.4 °F 73% 30.10 in 10.0 mi Calm Calm - N/A Rain Light Rain
9:19 AM 75.2 °F - 66.2 °F 73% 30.09 in 10.0 mi NE 3.5 mph - N/A   Clear
9:40 AM 75.2 °F - 66.2 °F 73% 30.09 in 10.0 mi NE 4.6 mph - N/A   Clear
9:56 AM 77.0 °F - 68.0 °F 74% 30.10 in 10.0 mi ESE 3.5 mph - N/A   Clear
10:17 AM 78.8 °F - 68.0 °F 69% 30.10 in 10.0 mi Calm Calm - N/A   Clear
10:37 AM 78.8 °F - 68.0 °F 69% 30.10 in 10.0 mi Calm Calm - N/A   Clear
10:58 AM 80.6 °F 82.7 °F 66.2 °F 61% 30.10 in 10.0 mi Calm Calm - N/A   Clear
11:16 AM 80.6 °F 83.2 °F 68.0 °F 65% 30.09 in 10.0 mi East 3.5 mph - N/A   Clear
11:37 AM 80.6 °F 82.7 °F 66.2 °F 61% 30.10 in 10.0 mi Calm Calm - N/A   Clear
11:56 AM 80.6 °F 83.2 °F 68.0 °F 65% 30.09 in 10.0 mi Calm Calm - N/A   Clear
12:18 PM 82.4 °F 85.4 °F 68.0 °F 62% 30.09 in 10.0 mi ESE 8.1 mph - N/A   Clear
12:37 PM 82.4 °F 85.4 °F 68.0 °F 62% 30.09 in 10.0 mi NE 4.6 mph - N/A   Clear
1:03 PM 84.2 °F 87.3 °F 68.0 °F 58% 30.10 in 10.0 mi East 3.5 mph - N/A   Clear
1:20 PM 84.2 °F 87.3 °F 68.0 °F 58% 30.09 in 10.0 mi ENE 3.5 mph - N/A   Unknown
1:36 PM 84.2 °F 87.3 °F 68.0 °F 58% 30.09 in 10.0 mi NE 4.6 mph - N/A   Unknown
1:58 PM 84.2 °F 86.6 °F 66.2 °F 55% 30.09 in 10.0 mi Calm Calm - N/A   Unknown
2:18 PM 86.0 °F 89.4 °F 68.0 °F 55% 30.09 in 10.0 mi Calm Calm - N/A   Unknown
2:38 PM 87.8 °F 90.4 °F 66.2 °F 49% 30.09 in 7.0 mi SSE 3.5 mph - N/A   Unknown
3:00 PM 86.0 °F 89.4 °F 68.0 °F 55% 30.08 in 10.0 mi East 4.6 mph - N/A   Unknown
3:18 PM 86.0 °F 89.4 °F 68.0 °F 55% 30.08 in 10.0 mi ENE 4.6 mph - N/A   Unknown
3:36 PM 87.8 °F 91.4 °F 68.0 °F 52% 30.08 in 10.0 mi NNE 6.9 mph - N/A   Unknown
4:03 PM 87.8 °F 91.4 °F 68.0 °F 52% 30.08 in 10.0 mi NNE 8.1 mph 17.3 mph N/A   Unknown
4:16 PM 86.0 °F 89.4 °F 68.0 °F 55% 30.08 in 10.0 mi NNE 8.1 mph 18.4 mph N/A   Unknown
4:36 PM 84.2 °F 87.3 °F 68.0 °F 58% 30.09 in 10.0 mi North 8.1 mph - N/A   Unknown
5:19 PM 84.2 °F 88.4 °F 69.8 °F 62% 30.09 in 10.0 mi ENE 4.6 mph - N/A   Unknown
5:56 PM 82.4 °F 86.3 °F 69.8 °F 66% 30.08 in 10.0 mi East 4.6 mph - N/A   Unknown
6:20 PM 82.4 °F 86.3 °F 69.8 °F 66% 30.07 in 10.0 mi NE 6.9 mph - N/A   Unknown
6:56 PM 82.4 °F 86.3 °F 69.8 °F 66% 30.08 in 10.0 mi ENE 6.9 mph - N/A   Unknown
7:16 PM 82.4 °F 85.4 °F 68.0 °F 62% 30.06 in 10.0 mi ENE 8.1 mph - N/A   Unknown
7:36 PM 80.6 °F 82.7 °F 66.2 °F 61% 30.08 in 10.0 mi ENE 4.6 mph - N/A   Clear
7:58 PM 80.6 °F 82.3 °F 64.4 °F 58% 30.09 in 10.0 mi ENE 5.8 mph - N/A   Unknown
8:17 PM 80.6 °F 82.7 °F 66.2 °F 61% 30.09 in 10.0 mi ENE 3.5 mph - N/A   Clear
8:39 PM 78.8 °F - 66.2 °F 65% 30.09 in 10.0 mi ENE 4.6 mph - N/A   Clear
8:56 PM 78.8 °F - 66.2 °F 65% 30.09 in 10.0 mi ENE 4.6 mph - N/A   Clear
9:36 PM 78.8 °F - 66.2 °F 65% 30.09 in 10.0 mi East 9.2 mph - N/A   Clear
9:57 PM 77.0 °F - 66.2 °F 69% 30.09 in 10.0 mi East 6.9 mph - N/A   Clear
10:17 PM 77.0 °F - 66.2 °F 69% 30.10 in 10.0 mi East 8.1 mph - N/A   Clear
10:42 PM 75.2 °F - 66.2 °F 73% 30.10 in 10.0 mi East 4.6 mph - N/A   Clear
10:56 PM 75.2 °F - 66.2 °F 73% 30.10 in 10.0 mi East 4.6 mph - N/A   Clear
11:22 PM 73.4 °F - 66.2 °F 78% 30.10 in 10.0 mi Calm Calm - N/A   Clear